Location: Wellington
(41.3000°S, 174.7830°E)
Time: 02:21:25
(UTC+12:00)

Cosmos 1606 - Pass Details

Date: 24 January 2019
Orbit: 503 x 530 km, 82.5° (Epoch: 19 April)

Event Time Altitude Azimuth Distance (km) Brightness Sun altitude
Exits shadow 23:26:49 58° 298° (WNW) 631 3.0 -22.8°
Maximum altitude 23:27:16 64° 261° (W) 602 3.0 -22.8°
Drops below altitude 10° 23:31:14 10° 178° (S) 1,812 6.2 -23.2°
Sets 23:33:25 0° 175° (S) 2,709 7.2 -23.4°
